[[{"header":{"parameterUnit":"m.s-1","parameterCategory":1,"la1":30.2991,"la2":30.254,"lo1":-89.0895,"lo2":-89.0444,"dy":0.0017,"dx":0.0017,"nx":28,"ny":28,"refTime":"2023-11-14T09:00:00:Z","depth":0,"parameterNumber":2,"parameterNumberName":"U-component_of_WINDS"},"data":[0,0,0,0,0,0,0,0,0,0,0,0,0,0,0,0,0,0,0,0,0,0,0,0,0,0,0,0,0,0,0,0,0,0,0,0,0,0,0,0,0,0,0,0,0,0,0,0,0,0,0,0,0,0,0,0,0,0,-5.7206,-5.7206,0,-5.7218,-5.7218,-5.7218,-5.7049,-5.7044,-5.704,-5.7035,-5.705,-5.7055,-5.7059,0,0,0,0,0,0,0,0,0,0,0,0,0,-5.704,-5.7044,-5.7206,-5.7206,-5.7207,-5.7218,-5.7218,-5.7218,-5.705,-5.7044,-5.7039,-5.7033,-5.7049,-5.7054,-5.706,0,0,0,0,0,0,0,0,0,0,0,0,0,-5.7089,-5.7046,-5.7206,-5.7124,-5.7117,-5.7218,-5.7218,-5.7218,-5.7051,-5.7044,-5.7037,-5.7031,-5.7047,-5.7054,-5.7061,-5.7242,0,0,-5.7082,-5.7085,0,0,0,0,0,0,0,0,-5.7086,-5.7095,-5.7136,-5.713,-5.7122,-5.7125,-5.7165,-5.7226,-5.7053,-5.7076,-5.7035,-5.7027,-5.7081,-5.7085,-5.7102,-5.7243,-5.7244,-5.7083,-5.7087,-5.709,-5.7092,0,0,0,0,0,0,0,-5.7083,-5.7093,-5.7211,-5.7137,-5.7128,-5.7087,-5.7086,-5.7176,-5.7117,-5.7073,-5.7061,-5.7065,-5.7076,-5.7096,-5.7101,-5.7244,-5.7083,-5.7089,-5.7093,-5.7096,-5.7535,-5.7542,0,0,0,0,0,0,-5.709,-5.7092,-5.721,-5.7211,-5.7086,-5.7096,-5.7095,-5.7131,-5.7116,-5.7107,-5.7071,-5.7057,-5.7087,-5.7093,-5.7101,-5.7313,-5.709,-5.7097,-5.7101,-5.7528,-5.7537,-5.7545,0,0,0,0,0,0,-5.7088,-5.7103,-5.721,-5.7148,-5.7159,-5.7106,-5.7148,-5.7135,-5.7154,-5.7113,-5.7102,-5.7102,-5.7082,-5.7091,-5.7208,-5.7311,-5.71,-5.7106,-5.7519,-5.753,-5.7541,-5.7739,0,0,0,0,0,0,-5.7084,-5.7103,-5.7171,-5.7151,-5.7163,-5.7317,-5.7154,-5.714,-5.7167,-5.7149,-5.714,-5.7132,-5.7077,-5.7199,-5.7215,-5.7317,-5.7112,-5.7509,-5.7524,-5.7537,-5.7723,-5.7756,-5.7784,0,0,0,0,0,-5.7078,-5.7226,-5.7175,-5.719,-5.7246,-5.7323,-5.733,-5.7264,-5.7176,-5.7244,-5.7218,-5.7132,-5.7297,-5.7212,-5.7229,-5.7335,-5.7503,-5.752,-5.7536,-5.771,-5.775,-5.7783,0,0,0,0,0,0,-5.726,-5.7222,-5.7165,-5.7311,-5.7322,-5.7295,-5.7378,-5.7308,-5.7344,-5.7326,-5.7242,-5.7242,-5.7373,-5.7365,-5.7271,-5.751,-5.7385,-5.7406,-5.7511,-5.7548,-5.7578,-5.7578,-5.7117,0,0,0,0,0,-5.7318,-5.7382,-5.7346,-5.7478,-5.7486,-5.7432,-5.7463,-5.7411,-5.7419,-5.7423,-5.7405,-5.7417,-5.7471,-5.7509,-5.7557,-5.7721,-5.7717,-5.7802,-5.7832,-5.7857,-5.7877,-5.7964,-5.8002,-5.76,-5.76,-5.7599,0,0,-5.7436,-5.7424,-5.747,-5.7515,-5.7517,-5.7587,-5.7437,-5.7517,-5.7569,-5.7435,-5.7545,-5.7533,-5.754,-5.7682,-5.7744,-5.768,-5.7987,-5.7879,-5.7899,-5.7905,-5.7985,-5.8024,-5.8058,-5.7611,-5.7609,-5.7607,0,0,-5.7689,-5.7685,-5.7796,-5.7801,-5.7805,-5.7768,-5.7795,-5.7779,-5.7765,-5.7874,-5.7775,-5.7836,-5.7931,-5.7941,-5.7958,-5.8215,-5.8138,-5.8233,-5.8392,-5.8478,-5.8509,-5.8537,-5.863,-5.8664,-5.8252,-5.8253,-5.8253,0,-5.7836,-5.7937,-5.7862,-5.7949,-5.7972,-5.7853,-5.7965,-5.7974,-5.7995,-5.8014,-5.7942,-5.8059,-5.8056,-5.8199,-5.8262,-5.8279,-5.8308,-5.8234,-5.8511,-5.8538,-5.8562,-5.865,-5.8685,-5.8265,-5.8263,-5.8262,-5.8261,0,-5.8119,-5.819,-5.8279,-5.8301,-5.8334,-5.8433,-5.8374,-5.8416,-5.8362,-5.8333,-5.8445,-5.8437,-5.8482,-5.8511,-5.8459,-5.8648,-5.8608,-5.8525,-5.8397,-5.8614,-5.8695,-5.8727,-5.8281,-5.8277,-5.8274,-5.8271,0,0,-5.8487,-5.8466,-5.85,-5.8509,-5.8506,-5.856,-5.8654,-5.8697,-5.8736,-5.8754,-5.8832,-5.8915,-5.8838,-5.8858,-5.8806,-5.8881,-5.9087,-5.8788,-5.8787,-5.8845,-5.9295,-5.9359,-5.9399,-5.9035,-5.9041,-5.9046,-5.9295,0,-5.8733,-5.8892,-5.8827,-5.8992,-5.9058,-5.8946,-5.9028,-5.9036,-5.9012,-5.9064,-5.9037,-5.9098,-5.8991,-5.9003,-5.9072,-5.9047,-5.9176,-5.9028,-5.9108,-5.9112,-5.9111,-5.9441,-5.9508,-5.9744,-5.9326,-5.9331,-5.9335,0,-5.9042,-5.9073,-5.9244,-5.923,-5.9255,-5.933,-5.9364,-5.9415,-5.9422,-5.9399,-5.9422,-5.9353,-5.9445,-5.9317,-5.9444,-5.9344,-5.9373,-5.9366,-5.9373,-5.9379,-5.9238,-5.9457,-5.9817,-5.9854,-5.9384,-5.938,-5.9377,0,-5.9295,-5.9379,-5.9493,-5.9504,-5.9489,-5.9545,-5.9542,-5.9541,-5.9571,-5.9601,-5.962,-5.9661,-5.9684,-5.9718,-5.9662,-5.9574,-5.9798,-5.9665,-5.9782,-5.9784,-5.9835,-5.9833,-6.0207,-5.9852,-5.9852,-5.9851,-5.985,0,-5.9578,-5.9688,-5.9606,-5.9677,-5.9796,-5.9721,-5.9842,-5.9826,-5.9827,-5.9893,-5.9799,-5.9863,-5.9785,-5.9842,-5.9799,-5.9911,-5.9922,-5.9906,-5.9894,-5.9916,-5.9918,-5.9934,-5.9917,-5.986,-5.9858,-5.9857,-5.9855,0,-5.9881,-5.9831,-5.9947,-5.9924,-5.9921,-6.0011,-5.9991,-6.0055,-6.0024,-6.0109,-6.0124,-6.0076,-6.0138,-6.0085,-6.0145,-6.0116,-6.0266,-6.0229,-6.0264,-6.0254,-6.0375,-6.0365,-6.0773,-6.0824,-6.0436,-6.044,-6.0443,0,-6.0065,-6.0147,-6.0132,-6.0169,-6.0172,-6.0233,-6.0263,-6.0192,-6.0227,-6.0241,-6.0304,-6.0358,-6.0398,-6.0502,-6.0473,-6.0519,-6.0484,-6.0624,-6.049,-6.051,-6.0487,-6.0484,-6.0492,-6.0651,-6.0656,-6.066,-6.0663,0,-6.0398,-6.0369,-6.0415,-6.0454,-6.0493,-6.052,-6.0539,-6.0575,-6.0502,-6.0547,-6.0609,-6.064,-6.0701,-6.0757,-6.0793,-6.079,-6.0716,-6.0705,-6.0735,-6.0758,-6.0775,-6.0769,-6.0339,-6.0696,-6.0693,-6.069,-6.0689,-6.0687,-6.0648,-6.0716,-6.0716,-6.0771,-6.0779,-6.0799,-6.0859,-6.0835,-6.0885,-6.0929,-6.0884,-6.096,-6.0964,-6.1005,-6.1012,-6.1071,-6.1013,-6.1056,-6.1067,-6.1079,-6.1097,-6.0765,-6.1077,-6.1076,-6.1075,-6.1074,-6.1073,0,-6.0977,-6.0972,-6.1023,-6.1053,-6.1097,-6.1021,-6.1039,-6.1082,-6.1149,-6.1159,-6.12,-6.1272,-6.1325,-6.13,-6.1347,-6.1399,-6.1366,-6.1414,-6.141,-6.1411,-6.1145,-6.1116,-6.144,-6.144,-6.144,-6.1439,-6.1439,-6.1439,-6.1153,-6.1264,-6.1236,-6.135,-6.1343,-6.1416,-6.1433,-6.1452,-6.146,-6.1544,-6.1588,-6.157,-6.1567,-6.1613,-6.1659,-6.165,-6.1672,-6.1733,-6.1712,-6.1465,-6.1429,-6.1395,-6.1366,-6.1738,-6.1738,-6.1972,-6.1974,-6.1976]},{"header":{"parameterUnit":"m.s-1","parameterCategory":1,"la1":30.2991,"la2":30.254,"lo1":-89.0895,"lo2":-89.0444,"dy":0.0017,"dx":0.0017,"nx":28,"ny":28,"refTime":"2023-11-14T09:00:00:Z","depth":0,"parameterNumber":3,"parameterNumberName":"V-component_of_WINDS"},"data":[0,0,0,0,0,0,0,0,0,0,0,0,0,0,0,0,0,0,0,0,0,0,0,0,0,0,0,0,0,0,0,0,0,0,0,0,0,0,0,0,0,0,0,0,0,0,0,0,0,0,0,0,0,0,0,0,0,0,-4.341,-4.341,0,-4.3441,-4.3441,-4.3441,-4.3362,-4.336,-4.3357,-4.3355,-4.3386,-4.3389,-4.3392,0,0,0,0,0,0,0,0,0,0,0,0,0,-4.3279,-4.3282,-4.341,-4.341,-4.341,-4.3441,-4.3441,-4.3442,-4.3363,-4.336,-4.3357,-4.3354,-4.3385,-4.3389,-4.3392,0,0,0,0,0,0,0,0,0,0,0,0,0,-4.3325,-4.3283,-4.3409,-4.3375,-4.3372,-4.3441,-4.3441,-4.3442,-4.3363,-4.336,-4.3356,-4.3352,-4.3384,-4.3388,-4.3393,-4.3497,0,0,-4.3407,-4.3409,0,0,0,0,0,0,0,0,-4.3323,-4.333,-4.3379,-4.3377,-4.3374,-4.3394,-4.3406,-4.346,-4.3364,-4.3367,-4.3355,-4.3351,-4.3392,-4.3395,-4.3409,-4.3498,-4.3499,-4.3408,-4.3411,-4.3413,-4.3414,0,0,0,0,0,0,0,-4.332,-4.3328,-4.3422,-4.338,-4.3377,-4.3356,-4.3359,-4.3416,-4.34,-4.3366,-4.336,-4.3365,-4.3389,-4.3405,-4.341,-4.35,-4.3408,-4.3412,-4.3415,-4.3417,-4.3672,-4.3676,0,0,0,0,0,0,-4.3321,-4.3326,-4.3421,-4.3423,-4.3339,-4.3362,-4.3365,-4.3391,-4.3399,-4.3396,-4.3368,-4.3361,-4.3399,-4.3404,-4.341,-4.3531,-4.3413,-4.3417,-4.342,-4.3669,-4.3673,-4.3678,0,0,0,0,0,0,-4.3319,-4.333,-4.342,-4.3373,-4.3383,-4.3368,-4.3399,-4.3394,-4.3409,-4.34,-4.3397,-4.3388,-4.3396,-4.3404,-4.3475,-4.3531,-4.3419,-4.3423,-4.3664,-4.367,-4.3676,-4.3773,0,0,0,0,0,0,-4.3315,-4.333,-4.337,-4.3375,-4.3386,-4.3485,-4.3402,-4.3397,-4.3418,-4.3409,-4.3418,-4.3415,-4.3394,-4.3469,-4.348,-4.3535,-4.3427,-4.3659,-4.3667,-4.3674,-4.3765,-4.3782,-4.3796,0,0,0,0,0,-4.3311,-4.3397,-4.3373,-4.3385,-4.3436,-4.3489,-4.3495,-4.3468,-4.3423,-4.3462,-4.3456,-4.3415,-4.3523,-4.3477,-4.3489,-4.3546,-4.3655,-4.3664,-4.3673,-4.3758,-4.3778,-4.3796,0,0,0,0,0,0,-4.34,-4.3397,-4.337,-4.346,-4.3475,-4.3475,-4.3524,-4.3491,-4.352,-4.351,-4.3476,-4.3478,-4.3556,-4.3558,-4.3507,-4.3645,-4.3581,-4.3593,-4.3641,-4.3661,-4.3676,-4.3674,-4.3431,0,0,0,0,0,-4.343,-4.3474,-4.3468,-4.3548,-4.3557,-4.354,-4.3562,-4.354,-4.3554,-4.356,-4.3559,-4.3574,-4.3611,-4.3636,-4.3669,-4.3765,-4.3764,-4.381,-4.3825,-4.3838,-4.3849,-4.3897,-4.3917,-4.3707,-4.3707,-4.3707,0,0,-4.3492,-4.3496,-4.3526,-4.3566,-4.3575,-4.362,-4.3546,-4.3597,-4.363,-4.3568,-4.3635,-4.3635,-4.3649,-4.3732,-4.3769,-4.3736,-4.3906,-4.385,-4.386,-4.3863,-4.3908,-4.3928,-4.3946,-4.3713,-4.3712,-4.3711,0,0,-4.3629,-4.3637,-4.3703,-4.3714,-4.3728,-4.3715,-4.3731,-4.3736,-4.3733,-4.38,-4.3754,-4.3792,-4.3857,-4.3868,-4.3882,-4.4021,-4.3984,-4.4033,-4.4114,-4.4162,-4.4178,-4.4193,-4.4241,-4.4259,-4.4043,-4.4044,-4.4044,0,-4.3705,-4.3772,-4.3742,-4.3796,-4.3814,-4.3759,-4.3825,-4.3836,-4.3861,-4.3875,-4.3838,-4.3916,-4.3922,-4.4006,-4.404,-4.4054,-4.407,-4.4032,-4.4178,-4.4193,-4.4206,-4.4251,-4.4269,-4.4049,-4.4049,-4.4048,-4.4047,0,-4.3863,-4.391,-4.3962,-4.3987,-4.401,-4.407,-4.4048,-4.4076,-4.4051,-4.4042,-4.411,-4.4115,-4.4147,-4.4165,-4.4143,-4.4246,-4.4225,-4.4184,-4.4119,-4.4232,-4.4274,-4.4291,-4.4058,-4.4056,-4.4054,-4.4052,0,0,-4.4058,-4.4064,-4.4083,-4.4093,-4.4104,-4.4139,-4.4195,-4.4227,-4.4251,-4.4269,-4.4315,-4.437,-4.4331,-4.4347,-4.4325,-4.4367,-4.4474,-4.432,-4.4319,-4.4347,-4.4586,-4.4617,-4.4638,-4.4449,-4.4452,-4.4455,-4.4585,0,-4.4192,-4.4289,-4.4263,-4.4359,-4.4401,-4.4349,-4.4397,-4.4409,-4.4401,-4.4435,-4.4426,-4.4465,-4.4412,-4.4421,-4.446,-4.4453,-4.4521,-4.4443,-4.449,-4.4492,-4.4488,-4.466,-4.4692,-4.4815,-4.4601,-4.4604,-4.4606,0,-4.4362,-4.4386,-4.4487,-4.4489,-4.4505,-4.455,-4.4575,-4.4608,-4.4619,-4.4611,-4.4628,-4.4596,-4.465,-4.4585,-4.4658,-4.4605,-4.4623,-4.4622,-4.4626,-4.4629,-4.4556,-4.4666,-4.4853,-4.4871,-4.4632,-4.463,-4.4628,0,-4.4492,-4.455,-4.4617,-4.4627,-4.4631,-4.4663,-4.4667,-4.4674,-4.4694,-4.4716,-4.4728,-4.4757,-4.4772,-4.4794,-4.4771,-4.4725,-4.4847,-4.478,-4.484,-4.4841,-4.4868,-4.4867,-4.506,-4.4881,-4.4881,-4.4881,-4.488,0,-4.4645,-4.4708,-4.4675,-4.4717,-4.4785,-4.4753,-4.4822,-4.4819,-4.4826,-4.4864,-4.4821,-4.4858,-4.4825,-4.4859,-4.4841,-4.4903,-4.4911,-4.4904,-4.4899,-4.4908,-4.4909,-4.4919,-4.491,-4.4885,-4.4884,-4.4883,-4.4883,0,-4.4802,-4.4783,-4.4852,-4.485,-4.4851,-4.4901,-4.4899,-4.4936,-4.4925,-4.4974,-4.4984,-4.4966,-4.5004,-4.4982,-4.5021,-4.5008,-4.5089,-4.5072,-4.5086,-4.5081,-4.5142,-4.5137,-4.5348,-4.5374,-4.518,-4.5181,-4.5183,0,-4.49,-4.4947,-4.495,-4.4972,-4.4978,-4.5016,-4.5035,-4.5005,-4.5027,-4.5042,-4.5077,-4.5111,-4.5136,-4.5198,-4.5188,-4.5217,-4.52,-4.5272,-4.5204,-4.5211,-4.52,-4.5197,-4.5201,-4.5286,-4.5288,-4.529,-4.5291,0,-4.5076,-4.5063,-4.5094,-4.512,-4.5145,-4.5164,-4.518,-4.5201,-4.5171,-4.5198,-4.5235,-4.5255,-4.5293,-4.5327,-4.5351,-4.5353,-4.5317,-4.5313,-4.5328,-4.5338,-4.5343,-4.534,-4.5122,-4.5308,-4.5306,-4.5305,-4.5304,-4.5304,-4.5206,-4.5244,-4.5251,-4.5286,-4.5294,-4.5309,-4.5344,-4.5336,-4.5367,-4.5396,-4.5376,-4.542,-4.5427,-4.5456,-4.5462,-4.5496,-4.5467,-4.5489,-4.5495,-4.5501,-4.5509,-4.5338,-4.55,-4.55,-4.5499,-4.5499,-4.5498,0,-4.5378,-4.5379,-4.5411,-4.5434,-4.5461,-4.5424,-4.5439,-4.5464,-4.5503,-4.5513,-4.5538,-4.558,-4.5612,-4.5604,-4.5632,-4.5661,-4.5645,-4.5669,-4.5666,-4.5667,-4.5534,-4.5517,-4.5681,-4.5681,-4.5681,-4.5681,-4.5681,-4.5681,-4.5471,-4.5534,-4.5522,-4.5588,-4.5588,-4.5631,-4.5642,-4.5656,-4.5663,-4.5712,-4.5738,-4.5732,-4.5735,-4.5762,-4.5789,-4.5786,-4.5798,-4.5828,-4.5819,-4.5695,-4.5677,-4.5659,-4.5644,-4.5832,-4.5832,-4.5949,-4.5951,-4.5951]}]]